Location: Unspecified
(0.0000°N, 0.0000°E)
Time: 13:28:09
(UTC+00:00)

JUGNU - Pass Details

Date: 24 February 2020
Orbit: 836 x 864 km, 20.0° (Epoch: 01 April)

Event Time Altitude Azimuth Distance (km) Brightness Sun altitude
Rises 19:00:25 0° 285° (WNW) 3,378 ? -11.6°
Reaches altitude 10° 19:03:00 10° 282° (WNW) 2,441 ? -12.3°
Maximum altitude 19:08:48 64° 201° (SSW) 919 ? -13.7°
Enters shadow 19:14:02 13° 121° (ESE) 2,241 ? -15.0°
